| time (UTC) | temp F | wind direction | speed MPH | gust MPH | rain 1hr in | rain 24hr in | rain mn in | humidity % | barometer mb |
| 20260505214814 | 62 | 176 | 0.0 | 0.0 | 0.00 | 0.00 | 0.00 | 69 | 1014.8 |
| 20260505214311 | 61 | 221 | 2.0 | 3.0 | 0.00 | 0.00 | 0.00 | 70 | 1014.8 |
| 20260505213808 | 61 | 176 | 0.0 | 0.0 | 0.00 | 0.00 | 0.00 | 71 | 1014.8 |
| 20260505213306 | 61 | 176 | 0.0 | 0.0 | 0.00 | 0.00 | 0.00 | 70 | 1014.9 |
| 20260505212801 | 62 | 171 | 1.0 | 1.0 | 0.00 | 0.00 | 0.00 | 69 | 1014.8 |
| 20260505212259 | 61 | 172 | 0.0 | 0.0 | 0.00 | 0.00 | 0.00 | 69 | 1015.0 |
| 20260505211755 | 61 | 173 | 1.0 | 1.0 | 0.00 | 0.00 | 0.00 | 69 | 1015.2 |
| 20260505211253 | 61 | 177 | 1.0 | 1.0 | 0.00 | 0.00 | 0.00 | 69 | 1015.1 |
| 20260505210749 | 61 | 170 | 2.0 | 3.0 | 0.00 | 0.00 | 0.00 | 69 | 1015.1 |
| 20260505210246 | 61 | 178 | 0.0 | 0.0 | 0.00 | 0.00 | 0.00 | 69 | 1014.9 |
| 20260505205743 | 61 | 177 | 0.0 | 1.0 | 0.00 | 0.00 | 0.00 | 69 | 1014.8 |
| 20260505205242 | 61 | 174 | 0.0 | 0.0 | 0.00 | 0.00 | 0.00 | 69 | 1015.0 |
| 20260505204738 | 62 | 175 | 1.0 | 1.0 | 0.00 | 0.00 | 0.00 | 69 | 1015.2 |
| 20260505204236 | 62 | 177 | 0.0 | 0.0 | 0.00 | 0.00 | 0.00 | 68 | 1015.1 |
| 20260505203732 | 61 | 173 | 0.0 | 0.0 | 0.00 | 0.00 | 0.00 | 69 | 1015.1 |
| 20260505203230 | 61 | 178 | 0.0 | 0.0 | 0.00 | 0.00 | 0.00 | 69 | 1015.0 |
| 20260505202725 | 62 | 169 | 0.0 | 1.0 | 0.00 | 0.00 | 0.00 | 68 | 1015.1 |
| 20260505202221 | 62 | 187 | 1.0 | 1.0 | 0.00 | 0.00 | 0.00 | 67 | 1015.1 |
| 20260505201718 | 63 | 172 | 0.0 | 1.0 | 0.00 | 0.00 | 0.00 | 66 | 1015.0 |
| 20260505201216 | 63 | 193 | 1.0 | 1.0 | 0.00 | 0.00 | 0.00 | 67 | 1015.1 |
| 20260505200714 | 61 | 171 | 0.0 | 0.0 | 0.00 | 0.00 | 0.00 | 70 | 1015.2 |
| 20260505200211 | 61 | 174 | 1.0 | 1.0 | 0.00 | 0.00 | 0.00 | 70 | 1015.2 |
| 20260505195706 | 61 | 174 | 0.0 | 1.0 | 0.00 | 0.00 | 0.00 | 69 | 1015.3 |
| 20260505195204 | 61 | 181 | 0.0 | 1.0 | 0.00 | 0.00 | 0.00 | 70 | 1015.7 |
| 20260505194701 | 61 | 169 | 0.0 | 0.0 | 0.00 | 0.00 | 0.00 | 70 | 1015.5 |
| 20260505194157 | 62 | 346 | 2.0 | 2.0 | 0.00 | 0.00 | 0.00 | 69 | 1015.5 |
| 20260505193653 | 61 | 171 | 0.0 | 0.0 | 0.00 | 0.00 | 0.00 | 70 | 1015.5 |
| 20260505193151 | 61 | 175 | 1.0 | 1.0 | 0.00 | 0.00 | 0.00 | 71 | 1015.6 |
| 20260505192649 | 61 | 175 | 0.0 | 1.0 | 0.00 | 0.00 | 0.00 | 71 | 1015.7 |
| 20260505192146 | 60 | 173 | 0.0 | 0.0 | 0.00 | 0.00 | 0.00 | 71 | 1015.4 |
| 20260505191645 | 61 | 173 | 2.0 | 2.0 | 0.00 | 0.00 | 0.00 | 71 | 1015.5 |
| 20260505191143 | 60 | 168 | 0.0 | 1.0 | 0.00 | 0.00 | 0.00 | 72 | 1015.5 |
| 20260505190638 | 60 | 185 | 1.0 | 2.0 | 0.00 | 0.00 | 0.00 | 72 | 1015.3 |
| 20260505190138 | 60 | 172 | 0.0 | 0.0 | 0.00 | 0.00 | 0.00 | 72 | 1015.6 |
| 20260505185635 | 60 | 209 | 3.0 | 3.0 | 0.00 | 0.00 | 0.00 | 72 | 1015.4 |
| 20260505185132 | 59 | 168 | 1.0 | 1.0 | 0.00 | 0.00 | 0.00 | 74 | 1015.2 |
| 20260505184628 | 60 | 219 | 1.0 | 2.0 | 0.00 | 0.00 | 0.00 | 72 | 1015.3 |
| 20260505184125 | 59 | 180 | 2.0 | 2.0 | 0.00 | 0.00 | 0.00 | 71 | 1015.4 |
| 20260505183622 | 59 | 168 | 1.0 | 1.0 | 0.00 | 0.00 | 0.00 | 73 | 1015.3 |
| 20260505183120 | 59 | 256 | 2.0 | 3.0 | 0.00 | 0.00 | 0.00 | 71 | 1015.2 |
| 20260505182616 | 59 | 170 | 1.0 | 1.0 | 0.00 | 0.00 | 0.00 | 72 | 1015.6 |
| 20260505182113 | 59 | 172 | 1.0 | 1.0 | 0.00 | 0.00 | 0.00 | 73 | 1015.4 |
| 20260505181609 | 58 | 172 | 0.0 | 0.0 | 0.00 | 0.00 | 0.00 | 73 | 1015.5 |
| 20260505181107 | 58 | 175 | 0.0 | 1.0 | 0.00 | 0.00 | 0.00 | 72 | 1015.2 |
| 20260505180603 | 58 | 171 | 0.0 | 0.0 | 0.00 | 0.00 | 0.00 | 73 | 1015.3 |
| 20260505180100 | 58 | 174 | 1.0 | 1.0 | 0.00 | 0.00 | 0.00 | 72 | 1015.2 |
| 20260505175556 | 58 | 178 | 1.0 | 2.0 | 0.00 | 0.00 | 0.00 | 72 | 1015.1 |
| 20260505175053 | 58 | 177 | 0.0 | 1.0 | 0.00 | 0.00 | 0.00 | 71 | 1015.2 |
| 20260505174550 | 58 | 173 | 0.0 | 0.0 | 0.00 | 0.00 | 0.00 | 72 | 1015.0 |
| 20260505174045 | 58 | 170 | 0.0 | 0.0 | 0.00 | 0.00 | 0.00 | 72 | 1014.9 |
| 20260505173542 | 58 | 171 | 0.0 | 0.0 | 0.00 | 0.00 | 0.00 | 73 | 1015.0 |
| 20260505173039 | 58 | 172 | 0.0 | 0.0 | 0.00 | 0.00 | 0.00 | 72 | 1014.9 |
| 20260505172537 | 58 | 172 | 0.0 | 0.0 | 0.00 | 0.00 | 0.00 | 71 | 1015.0 |
| 20260505172033 | 58 | 170 | 0.0 | 0.0 | 0.00 | 0.00 | 0.00 | 71 | 1015.0 |
| 20260505171528 | 58 | 165 | 1.0 | 1.0 | 0.00 | 0.00 | 0.00 | 72 | 1015.0 |
| 20260505171025 | 58 | 172 | 0.0 | 0.0 | 0.00 | 0.00 | 0.00 | 72 | 1014.9 |
| 20260505170522 | 58 | 172 | 0.0 | 1.0 | 0.00 | 0.00 | 0.00 | 72 | 1014.8 |
| 20260505170018 | 58 | 170 | 0.0 | 0.0 | 0.00 | 0.00 | 0.00 | 72 | 1014.7 |
| 20260505165514 | 58 | 170 | 0.0 | 0.0 | 0.00 | 0.00 | 0.00 | 73 | 1014.8 |
| 20260505165009 | 58 | 169 | 0.0 | 0.0 | 0.00 | 0.00 | 0.00 | 72 | 1014.6 |
| 20260505164500 | 58 | 171 | 0.0 | 1.0 | 0.00 | 0.00 | 0.00 | 72 | 1014.8 |
| 20260505163958 | 58 | 169 | 1.0 | 1.0 | 0.00 | 0.00 | 0.00 | 73 | 1015.0 |
| 20260505163456 | 57 | 166 | 0.0 | 0.0 | 0.00 | 0.00 | 0.00 | 73 | 1014.9 |
| 20260505162956 | 57 | 170 | 0.0 | 0.0 | 0.00 | 0.00 | 0.00 | 73 | 1014.7 |
| 20260505162451 | 57 | 171 | 1.0 | 1.0 | 0.00 | 0.00 | 0.00 | 74 | 1014.6 |
| 20260505161948 | 57 | 174 | 0.0 | 0.0 | 0.00 | 0.00 | 0.00 | 74 | 1014.5 |
| 20260505161444 | 57 | 171 | 1.0 | 1.0 | 0.00 | 0.00 | 0.00 | 74 | 1014.5 |
| 20260505160942 | 56 | 171 | 0.0 | 0.0 | 0.00 | 0.00 | 0.00 | 74 | 1014.6 |
| 20260505160440 | 56 | 173 | 0.0 | 0.0 | 0.00 | 0.00 | 0.00 | 76 | 1014.6 |
| 20260505152916 | 56 | 172 | 0.0 | 0.0 | 0.00 | 0.00 | 0.00 | 76 | 1014.5 |
| 20260505152408 | 56 | 171 | 0.0 | 0.0 | 0.00 | 0.00 | 0.00 | 76 | 1014.3 |
| 20260505151907 | 55 | 171 | 0.0 | 0.0 | 0.00 | 0.00 | 0.00 | 77 | 1014.4 |
| 20260505151404 | 55 | 171 | 0.0 | 0.0 | 0.00 | 0.00 | 0.00 | 77 | 1014.4 |
| 20260505150901 | 55 | 171 | 0.0 | 0.0 | 0.00 | 0.00 | 0.00 | 77 | 1014.6 |
| 20260505150358 | 55 | 171 | 0.0 | 0.0 | 0.00 | 0.00 | 0.00 | 77 | 1014.4 |
| 20260505140323 | 54 | 172 | 0.0 | 0.0 | 0.00 | 0.00 | 0.00 | 78 | 1014.0 |
| 20260505130246 | 54 | 172 | 0.0 | 0.0 | 0.00 | 0.00 | 0.00 | 79 | 1013.6 |
| 20260505124737 | 54 | 172 | 0.0 | 0.0 | 0.00 | 0.00 | 0.00 | 78 | 1013.9 |
| 20260505124234 | 53 | 172 | 0.0 | 0.0 | 0.00 | 0.00 | 0.00 | 78 | 1013.7 |
| 20260505123729 | 53 | 173 | 0.0 | 0.0 | 0.00 | 0.00 | 0.00 | 78 | 1013.8 |
| 20260505123226 | 54 | 172 | 0.0 | 0.0 | 0.00 | 0.00 | 0.00 | 79 | 1013.9 |
| 20260505122722 | 54 | 172 | 0.0 | 0.0 | 0.00 | 0.00 | 0.00 | 78 | 1013.8 |
| 20260505122220 | 54 | 173 | 0.0 | 0.0 | 0.00 | 0.00 | 0.00 | 78 | 1013.8 |
| 20260505121716 | 54 | 170 | 0.0 | 0.0 | 0.00 | 0.00 | 0.00 | 78 | 1014.0 |
| 20260505121213 | 54 | 171 | 0.0 | 0.0 | 0.00 | 0.00 | 0.00 | 77 | 1013.9 |
| 20260505120709 | 54 | 170 | 0.0 | 0.0 | 0.00 | 0.00 | 0.00 | 77 | 1014.2 |
| 20260505120205 | 54 | 169 | 0.0 | 0.0 | 0.00 | 0.00 | 0.00 | 77 | 1014.2 |
| 20260505115659 | 54 | 170 | 0.0 | 0.0 | 0.00 | 0.00 | 0.00 | 77 | 1013.8 |
| 20260505115157 | 54 | 170 | 0.0 | 0.0 | 0.00 | 0.00 | 0.00 | 77 | 1014.2 |
| 20260505114654 | 54 | 169 | 0.0 | 0.0 | 0.00 | 0.00 | 0.00 | 77 | 1013.9 |
| 20260505114150 | 54 | 169 | 0.0 | 0.0 | 0.00 | 0.00 | 0.00 | 77 | 1014.1 |
| 20260505113646 | 54 | 172 | 0.0 | 0.0 | 0.00 | 0.00 | 0.00 | 77 | 1014.1 |
| 20260505113143 | 54 | 172 | 0.0 | 0.0 | 0.00 | 0.00 | 0.00 | 77 | 1014.2 |
| 20260505112640 | 54 | 175 | 0.0 | 0.0 | 0.00 | 0.00 | 0.00 | 76 | 1014.2 |
| 20260505112138 | 54 | 175 | 0.0 | 0.0 | 0.00 | 0.00 | 0.00 | 76 | 1013.8 |
| 20260505111637 | 54 | 175 | 0.0 | 0.0 | 0.00 | 0.00 | 0.00 | 76 | 1014.2 |
| 20260505111133 | 54 | 180 | 1.0 | 1.0 | 0.00 | 0.00 | 0.00 | 76 | 1013.8 |
| 20260505110629 | 54 | 170 | 0.0 | 0.0 | 0.00 | 0.00 | 0.00 | 75 | 1013.8 |
| 20260505110127 | 54 | 179 | 0.0 | 0.0 | 0.00 | 0.00 | 0.00 | 75 | 1014.0 |
| 20260505102103 | 54 | 167 | 0.0 | 0.0 | 0.00 | 0.00 | 0.00 | 74 | 1014.0 |
| 20260505101601 | 54 | 174 | 0.0 | 0.0 | 0.00 | 0.00 | 0.00 | 74 | 1014.0 |
| 20260505101057 | 54 | 172 | 0.0 | 0.0 | 0.00 | 0.00 | 0.00 | 74 | 1014.0 |
| 20260505100553 | 54 | 171 | 0.0 | 1.0 | 0.00 | 0.00 | 0.00 | 73 | 1014.1 |
| 20260505100050 | 54 | 169 | 0.0 | 0.0 | 0.00 | 0.00 | 0.00 | 73 | 1014.1 |
| 20260505095547 | 54 | 179 | 0.0 | 1.0 | 0.00 | 0.00 | 0.00 | 73 | 1014.2 |
| 20260505095043 | 54 | 180 | 1.0 | 1.0 | 0.00 | 0.00 | 0.00 | 73 | 1014.1 |
| 20260505094540 | 54 | 171 | 0.0 | 0.0 | 0.00 | 0.00 | 0.00 | 72 | 1014.1 |
| 20260505094036 | 54 | 178 | 0.0 | 1.0 | 0.00 | 0.00 | 0.00 | 72 | 1014.0 |
| 20260505093533 | 54 | 173 | 0.0 | 0.0 | 0.00 | 0.00 | 0.00 | 73 | 1014.1 |
| 20260505093030 | 54 | 175 | 1.0 | 1.0 | 0.00 | 0.00 | 0.00 | 72 | 1014.1 |
| 20260505092527 | 54 | 170 | 0.0 | 0.0 | 0.00 | 0.00 | 0.00 | 72 | 1014.3 |
| 20260505092026 | 55 | 169 | 0.0 | 0.0 | 0.00 | 0.00 | 0.00 | 72 | 1013.9 |
| 20260505091522 | 55 | 171 | 0.0 | 0.0 | 0.00 | 0.00 | 0.00 | 71 | 1014.1 |
| 20260505091020 | 55 | 168 | 0.0 | 0.0 | 0.00 | 0.00 | 0.00 | 72 | 1014.2 |
| 20260505090518 | 55 | 189 | 1.0 | 2.0 | 0.00 | 0.00 | 0.00 | 71 | 1014.3 |
| 20260505090016 | 55 | 170 | 1.0 | 1.0 | 0.00 | 0.00 | 0.00 | 71 | 1014.5 |
| 20260505085514 | 55 | 186 | 2.0 | 3.0 | 0.00 | 0.00 | 0.00 | 71 | 1014.5 |
| 20260505085011 | 55 | 169 | 1.0 | 2.0 | 0.00 | 0.00 | 0.00 | 72 | 1014.4 |
| 20260505084509 | 55 | 165 | 1.0 | 1.0 | 0.00 | 0.00 | 0.00 | 72 | 1014.5 |
| 20260505084007 | 55 | 74 | 3.0 | 3.0 | 0.00 | 0.00 | 0.00 | 73 | 1014.6 |
| 20260505083504 | 55 | 161 | 2.0 | 2.0 | 0.00 | 0.00 | 0.00 | 72 | 1014.7 |
| 20260505083000 | 55 | 228 | 3.0 | 5.0 | 0.00 | 0.00 | 0.00 | 72 | 1014.6 |
| 20260505082456 | 55 | 154 | 2.0 | 3.0 | 0.00 | 0.00 | 0.00 | 73 | 1014.7 |
| 20260505081953 | 55 | 169 | 0.0 | 1.0 | 0.00 | 0.00 | 0.00 | 74 | 1014.7 |
| 20260505081450 | 55 | 169 | 0.0 | 1.0 | 0.00 | 0.00 | 0.00 | 74 | 1014.6 |
| 20260505080946 | 55 | 357 | 3.0 | 5.0 | 0.00 | 0.00 | 0.00 | 74 | 1014.7 |
| 20260505080443 | 55 | 129 | 2.0 | 3.0 | 0.00 | 0.00 | 0.00 | 75 | 1014.9 |
| 20260505075938 | 55 | 148 | 1.0 | 2.0 | 0.00 | 0.00 | 0.00 | 77 | 1014.8 |
| 20260505075435 | 55 | 174 | 2.0 | 2.0 | 0.00 | 0.00 | 0.00 | 79 | 1014.7 |
| 20260505074933 | 55 | 170 | 1.0 | 1.0 | 0.00 | 0.00 | 0.00 | 80 | 1014.6 |
| 20260505074430 | 55 | 161 | 0.0 | 0.0 | 0.00 | 0.00 | 0.00 | 81 | 1014.7 |
| 20260505073927 | 56 | 125 | 2.0 | 2.0 | 0.00 | 0.00 | 0.00 | 81 | 1014.6 |
| 20260505073425 | 56 | 176 | 2.0 | 2.0 | 0.00 | 0.00 | 0.00 | 82 | 1014.8 |
| 20260505072921 | 56 | 175 | 1.0 | 1.0 | 0.00 | 0.00 | 0.00 | 82 | 1014.7 |
| 20260505072417 | 56 | 191 | 1.0 | 2.0 | 0.00 | 0.00 | 0.00 | 82 | 1014.6 |
| 20260505071914 | 56 | 176 | 0.0 | 0.0 | 0.00 | 0.00 | 0.00 | 82 | 1014.6 |
| 20260505071410 | 56 | 169 | 0.0 | 0.0 | 0.00 | 0.00 | 0.00 | 81 | 1014.7 |
| 20260505070908 | 56 | 172 | 0.0 | 0.0 | 0.00 | 0.00 | 0.00 | 81 | 1014.5 |
| 20260505070404 | 56 | 174 | 0.0 | 0.0 | 0.00 | 0.00 | 0.00 | 81 | 1014.3 |
| 20260505065900 | 56 | 174 | 0.0 | 0.0 | 0.00 | 0.00 | 0.00 | 82 | 1014.2 |
| 20260505065357 | 55 | 166 | 1.0 | 1.0 | 0.00 | 0.00 | 0.00 | 82 | 1014.3 |
| 20260505064854 | 55 | 170 | 0.0 | 0.0 | 0.00 | 0.00 | 0.00 | 82 | 1014.3 |
| 20260505064351 | 55 | 170 | 0.0 | 0.0 | 0.00 | 0.00 | 0.00 | 82 | 1014.2 |
| 20260505063850 | 55 | 172 | 0.0 | 0.0 | 0.00 | 0.00 | 0.00 | 82 | 1014.4 |
| 20260505063345 | 55 | 175 | 0.0 | 0.0 | 0.00 | 0.00 | 0.00 | 81 | 1014.2 |
| 20260505062842 | 55 | 171 | 0.0 | 0.0 | 0.00 | 0.00 | 0.00 | 81 | 1014.2 |
| 20260505062339 | 55 | 170 | 0.0 | 0.0 | 0.00 | 0.00 | 0.00 | 81 | 1014.2 |
| 20260505061836 | 55 | 167 | 0.0 | 0.0 | 0.00 | 0.00 | 0.00 | 80 | 1014.2 |
| 20260505061334 | 56 | 196 | 2.0 | 2.0 | 0.00 | 0.00 | 0.00 | 80 | 1014.1 |
| 20260505060831 | 56 | 170 | 0.0 | 0.0 | 0.00 | 0.00 | 0.00 | 80 | 1014.2 |
| 20260505060328 | 56 | 170 | 0.0 | 1.0 | 0.00 | 0.00 | 0.00 | 79 | 1014.1 |
| 20260505055824 | 56 | 175 | 0.0 | 0.0 | 0.00 | 0.00 | 0.00 | 78 | 1014.2 |
| 20260505055320 | 56 | 190 | 1.0 | 2.0 | 0.00 | 0.00 | 0.00 | 78 | 1014.1 |
| 20260505054817 | 56 | 175 | 0.0 | 1.0 | 0.00 | 0.00 | 0.00 | 78 | 1014.4 |
| 20260505054314 | 57 | 181 | 1.0 | 1.0 | 0.00 | 0.00 | 0.00 | 78 | 1014.4 |
| 20260505053813 | 57 | 169 | 0.0 | 0.0 | 0.00 | 0.00 | 0.00 | 77 | 1014.2 |
| 20260505053309 | 57 | 172 | 0.0 | 0.0 | 0.00 | 0.00 | 0.00 | 77 | 1014.6 |
| 20260505052806 | 57 | 176 | 0.0 | 1.0 | 0.00 | 0.00 | 0.00 | 77 | 1014.6 |
| 20260505052304 | 57 | 172 | 0.0 | 0.0 | 0.00 | 0.00 | 0.00 | 77 | 1014.8 |
| 20260505051800 | 57 | 172 | 0.0 | 1.0 | 0.00 | 0.00 | 0.00 | 77 | 1014.7 |
| 20260505051258 | 57 | 171 | 0.0 | 0.0 | 0.00 | 0.00 | 0.00 | 76 | 1014.6 |
| 20260505050756 | 57 | 170 | 0.0 | 1.0 | 0.00 | 0.00 | 0.00 | 76 | 1014.7 |
| 20260505050254 | 57 | 169 | 1.0 | 1.0 | 0.00 | 0.00 | 0.00 | 76 | 1014.6 |
| 20260505041729 | 59 | 185 | 2.0 | 3.0 | 0.00 | 0.00 | 0.00 | 72 | 1013.9 |
| 20260505041226 | 59 | 225 | 2.0 | 2.0 | 0.00 | 0.00 | 0.00 | 71 | 1014.1 |
| 20260505040723 | 59 | 269 | 2.0 | 3.0 | 0.00 | 0.00 | 0.00 | 71 | 1014.0 |
| 20260505040220 | 59 | 22 | 4.0 | 5.0 | 0.00 | 0.00 | 0.00 | 71 | 1013.9 |
| 20260505035717 | 59 | 165 | 3.0 | 3.0 | 0.00 | 0.00 | 0.00 | 72 | 1013.8 |
| 20260505035213 | 59 | 174 | 0.0 | 1.0 | 0.00 | 0.00 | 0.00 | 73 | 1013.7 |
| 20260505034710 | 59 | 173 | 1.0 | 1.0 | 0.00 | 0.00 | 0.00 | 73 | 1013.5 |
| 20260505034207 | 59 | 178 | 1.0 | 1.0 | 0.00 | 0.00 | 0.00 | 72 | 1013.7 |
| 20260505033703 | 59 | 0 | 3.0 | 5.0 | 0.00 | 0.00 | 0.00 | 71 | 1013.6 |
| 20260505033201 | 59 | 221 | 2.0 | 2.0 | 0.00 | 0.00 | 0.00 | 71 | 1013.3 |
| 20260505032659 | 59 | 135 | 3.0 | 3.0 | 0.00 | 0.00 | 0.00 | 70 | 1013.3 |
| 20260505032155 | 59 | 178 | 2.0 | 2.0 | 0.00 | 0.00 | 0.00 | 70 | 1013.3 |
| 20260505031652 | 59 | 221 | 2.0 | 2.0 | 0.00 | 0.00 | 0.00 | 70 | 1013.6 |
| 20260505031149 | 59 | 175 | 3.0 | 3.0 | 0.00 | 0.00 | 0.00 | 70 | 1013.3 |
| 20260505030646 | 59 | 196 | 2.0 | 2.0 | 0.00 | 0.00 | 0.00 | 70 | 1013.5 |
| 20260505030141 | 59 | 161 | 2.0 | 3.0 | 0.00 | 0.00 | 0.00 | 70 | 1013.5 |
| 20260505025638 | 59 | 210 | 2.0 | 5.0 | 0.00 | 0.00 | 0.00 | 69 | 1013.4 |
| 20260505025136 | 60 | 201 | 2.0 | 3.0 | 0.00 | 0.00 | 0.00 | 69 | 1013.6 |
| 20260505024633 | 60 | 165 | 1.0 | 2.0 | 0.00 | 0.00 | 0.00 | 69 | 1013.5 |
| 20260505024131 | 60 | 288 | 3.0 | 3.0 | 0.00 | 0.00 | 0.00 | 69 | 1013.5 |
| 20260505023628 | 60 | 178 | 1.0 | 1.0 | 0.00 | 0.00 | 0.00 | 69 | 1013.3 |
| 20260505023125 | 60 | 193 | 1.0 | 2.0 | 0.00 | 0.00 | 0.00 | 68 | 1013.4 |
| 20260505022623 | 60 | 354 | 4.0 | 6.0 | 0.00 | 0.00 | 0.00 | 67 | 1013.5 |
| 20260505022119 | 60 | 193 | 2.0 | 2.0 | 0.00 | 0.00 | 0.00 | 67 | 1013.3 |
| 20260505021616 | 60 | 166 | 1.0 | 1.0 | 0.00 | 0.00 | 0.00 | 67 | 1013.1 |
| 20260505021113 | 60 | 313 | 4.0 | 5.0 | 0.00 | 0.00 | 0.00 | 67 | 1013.4 |
| 20260505020608 | 60 | 96 | 2.0 | 2.0 | 0.00 | 0.00 | 0.00 | 66 | 1013.3 |
| 20260505020105 | 61 | 174 | 1.0 | 2.0 | 0.00 | 0.00 | 0.00 | 65 | 1013.1 |
| 20260505015602 | 61 | 215 | 2.0 | 2.0 | 0.00 | 0.00 | 0.00 | 64 | 1013.2 |
| 20260505015058 | 61 | 170 | 1.0 | 2.0 | 0.00 | 0.00 | 0.00 | 63 | 1013.0 |
| 20260505014555 | 61 | 189 | 2.0 | 2.0 | 0.00 | 0.00 | 0.00 | 63 | 1013.3 |
| 20260505014052 | 61 | 325 | 3.0 | 5.0 | 0.00 | 0.00 | 0.00 | 63 | 1013.2 |
| 20260505013549 | 61 | 24 | 3.0 | 5.0 | 0.00 | 0.00 | 0.00 | 63 | 1013.2 |
| 20260505013047 | 61 | 334 | 3.0 | 5.0 | 0.00 | 0.00 | 0.00 | 63 | 1013.3 |
| 20260505012545 | 61 | 142 | 3.0 | 5.0 | 0.00 | 0.00 | 0.00 | 63 | 1013.1 |
| 20260505012042 | 61 | 172 | 1.0 | 1.0 | 0.00 | 0.00 | 0.00 | 65 | 1013.2 |
| 20260505011537 | 61 | 267 | 3.0 | 3.0 | 0.00 | 0.00 | 0.00 | 65 | 1013.6 |
| 20260505011034 | 62 | 182 | 2.0 | 3.0 | 0.00 | 0.00 | 0.00 | 65 | 1013.4 |
| 20260505010530 | 61 | 175 | 0.0 | 0.0 | 0.00 | 0.00 | 0.00 | 65 | 1013.5 |
| 20260505010027 | 62 | 193 | 2.0 | 2.0 | 0.00 | 0.00 | 0.00 | 65 | 1013.5 |
| 20260505005523 | 62 | 171 | 0.0 | 1.0 | 0.00 | 0.00 | 0.00 | 65 | 1013.5 |
| 20260505005021 | 62 | 161 | 2.0 | 2.0 | 0.00 | 0.00 | 0.00 | 65 | 1013.5 |
| 20260505004517 | 62 | 151 | 3.0 | 3.0 | 0.00 | 0.00 | 0.00 | 65 | 1013.4 |
| 20260505004014 | 63 | 191 | 1.0 | 2.0 | 0.00 | 0.00 | 0.00 | 64 | 1013.5 |
| 20260505003511 | 63 | 178 | 1.0 | 1.0 | 0.00 | 0.00 | 0.00 | 64 | 1013.4 |
| 20260505003008 | 63 | 178 | 1.0 | 1.0 | 0.00 | 0.00 | 0.00 | 63 | 1013.5 |
| 20260505002503 | 63 | 168 | 2.0 | 3.0 | 0.00 | 0.00 | 0.00 | 64 | 1013.6 |
| 20260505002002 | 63 | 197 | 1.0 | 2.0 | 0.00 | 0.00 | 0.00 | 65 | 1013.4 |
| 20260505001459 | 63 | 165 | 1.0 | 1.0 | 0.00 | 0.00 | 0.00 | 65 | 1013.3 |
| 20260505000956 | 63 | 25 | 2.0 | 5.0 | 0.00 | 0.00 | 0.00 | 64 | 1013.4 |
| 20260505000454 | 63 | 180 | 2.0 | 2.0 | 0.00 | 0.00 | 0.00 | 63 | 1013.3 |
| 20260504235951 | 63 | 286 | 3.0 | 5.0 | 0.00 | 0.00 | 0.00 | 62 | 1013.4 |
| 20260504235448 | 64 | 12 | 4.0 | 6.0 | 0.00 | 0.00 | 0.00 | 61 | 1013.1 |
| 20260504234944 | 64 | 159 | 2.0 | 2.0 | 0.00 | 0.00 | 0.00 | 60 | 1013.4 |
| 20260504234442 | 65 | 321 | 5.0 | 8.0 | 0.00 | 0.00 | 0.00 | 59 | 1013.2 |
| 20260504233938 | 65 | 161 | 2.0 | 2.0 | 0.00 | 0.00 | 0.00 | 58 | 1013.4 |
| 20260504233434 | 64 | 263 | 2.0 | 3.0 | 0.00 | 0.00 | 0.00 | 61 | 1013.2 |
| 20260504232931 | 64 | 243 | 2.0 | 3.0 | 0.00 | 0.00 | 0.00 | 62 | 1013.4 |
| 20260504232428 | 63 | 77 | 2.0 | 2.0 | 0.00 | 0.00 | 0.00 | 63 | 1013.2 |
| 20260504231925 | 63 | 172 | 1.0 | 2.0 | 0.00 | 0.00 | 0.00 | 63 | 1013.3 |
| 20260504231421 | 63 | 354 | 2.0 | 2.0 | 0.00 | 0.00 | 0.00 | 62 | 1013.4 |
| 20260504230918 | 64 | 170 | 0.0 | 1.0 | 0.00 | 0.00 | 0.00 | 62 | 1013.6 |
| 20260504230415 | 64 | 175 | 1.0 | 2.0 | 0.00 | 0.00 | 0.00 | 61 | 1013.6 |
| 20260504225914 | 64 | 173 | 0.0 | 1.0 | 0.00 | 0.00 | 0.00 | 61 | 1013.3 |
| 20260504225410 | 64 | 177 | 2.0 | 2.0 | 0.00 | 0.00 | 0.00 | 60 | 1013.5 |
| 20260504224908 | 64 | 188 | 0.0 | 1.0 | 0.00 | 0.00 | 0.00 | 60 | 1013.3 |
| 20260504224404 | 65 | 172 | 0.0 | 0.0 | 0.00 | 0.00 | 0.00 | 59 | 1013.4 |
| 20260504223901 | 65 | 179 | 1.0 | 1.0 | 0.00 | 0.00 | 0.00 | 59 | 1013.3 |
| 20260504223356 | 65 | 183 | 1.0 | 1.0 | 0.00 | 0.00 | 0.00 | 59 | 1013.5 |
| 20260504222853 | 65 | 179 | 2.0 | 2.0 | 0.00 | 0.00 | 0.00 | 59 | 1013.4 |
| 20260504222350 | 65 | 178 | 0.0 | 1.0 | 0.00 | 0.00 | 0.00 | 59 | 1013.5 |
| 20260504221848 | 65 | 171 | 0.0 | 0.0 | 0.00 | 0.00 | 0.00 | 59 | 1013.5 |
| 20260504221345 | 65 | 173 | 0.0 | 0.0 | 0.00 | 0.00 | 0.00 | 59 | 1013.3 |
| 20260504220842 | 65 | 172 | 0.0 | 0.0 | 0.00 | 0.00 | 0.00 | 60 | 1013.5 |
| 20260504220338 | 65 | 178 | 0.0 | 1.0 | 0.00 | 0.00 | 0.00 | 60 | 1013.7 |
| 20260504215836 | 64 | 174 | 0.0 | 0.0 | 0.00 | 0.00 | 0.00 | 61 | 1013.6 |
| 20260504215332 | 64 | 185 | 2.0 | 2.0 | 0.00 | 0.00 | 0.00 | 60 | 1013.5 |